Waarnemingen

Advertentie
Mijn weer
Putbus, Duitsland (10093): temperatuur & dauwpunt: 16.02.2017 11:00:00 - 22.02.2017 11:00:00 (CET)Putbus, Duitsland (10093): temperatuur 5cm & temperatuur -5cm: 16.02.2017 11:00:00 - 22.02.2017 11:00:00 (CET)Putbus, Duitsland (10093): temperatuur -20cm & temperatuur -100cm: 16.02.2017 11:00:00 - 22.02.2017 11:00:00 (CET)Putbus, Duitsland (10093): windsnelheid & windstoten: 16.02.2017 11:00:00 - 22.02.2017 11:00:00 (CET)Putbus, Duitsland (10093): windrichting: 16.02.2017 11:00:00 - 22.02.2017 11:00:00 (CET)Putbus, Duitsland (10093): luchtdruk: 16.02.2017 11:00:00 - 22.02.2017 11:00:00 (CET)Putbus, Duitsland (10093): zicht: 16.02.2017 11:00:00 - 22.02.2017 11:00:00 (CET)Putbus, Duitsland (10093): Zonneschijnduur: 16.02.2017 11:00:00 - 22.02.2017 11:00:00 (CET)Putbus, Duitsland (10093): neerslag: 16.02.2017 11:00:00 - 22.02.2017 11:00:00 (CET)
Datum & Tijd tt [°C] td [°C] tt 5cm [°C] tt -5cm [°C] tt -20cm [°C] tt -100cm [°C] ff [km/u] ff [kn] fx [km/u] fx [kn] dd ppp [hPa] vv [km] sd [min] rr [mm]
22.02.2017 11:00:00 8,0 6,3 7,6 6,7 4,2 4,2 38 20 54 29 W 992,5 38 0 0,1
22.02.2017 10:00:00 8,0 6,7 7,5 6,1 3,9 4,2 37 20 65 35 W 992,3 7 0 0,4
22.02.2017 09:00:00 8,2 6,8 7,4 5,5 3,7 4,2 35 19 55 30 W 992,3 11 0 2,2
22.02.2017 08:00:00 7,1 6,1 6,6 4,6 3,6 4,2 27 15 44 24 WZW 992,5 5 0 0,7
22.02.2017 07:00:00 5,4 4,6 5,0 3,7 3,5 4,2 23 12 44 24 ZW 992,9 4,9 0 1,8
22.02.2017 06:00:00 4,2 3,5 3,9 3,1 3,5 4,2 22 12 37 20 ZZW 994,6 3,1 0 3,0
22.02.2017 05:00:00 3,2 2,1 2,9 2,7 3,5 4,2 21 11 34 18 Z 997,4 1,9 0 0,7
22.02.2017 04:00:00 3,1 1,1 2,8 2,5 3,5 4,2 16 9 27 15 Z 999,8 26 0 0,0
22.02.2017 03:00:00 3,3 1,2 2,9 2,3 3,6 4,2 17 9 27 14 ZZW 1002,3 25 0 0,0
22.02.2017 02:00:00 3,0 1,2 2,3 2,2 3,8 4,1 15 8 27 14 ZZW 1004,0 23 0 0,0
22.02.2017 01:00:00 3,0 1,0 2,2 2,1 3,9 4,1 17 9 29 16 ZW 1005,7 21 0 0,0
22.02.2017 00:00:00 3,2 1,0 2,0 2,3 4,1 4,1 17 9 34 18 WZW 1006,6 23 0 0,0
21.02.2017 23:00:00 4,1 1,4 3,1 2,4 4,3 4,1 26 14 40 22 W 1006,9 26 0 0,0
21.02.2017 22:00:00 3,9 1,4 2,3 2,4 4,5 4,1 25 14 41 22 W 1007,1 24 0 0,0
21.02.2017 21:00:00 4,2 1,5 2,7 2,8 4,8 4,1 26 14 48 26 W 1006,8 27 0 0,0
21.02.2017 20:00:00 4,4 1,5 3,0 3,2 5,1 4,1 32 17 50 27 W 1006,6 27 0 0,0
21.02.2017 19:00:00 4,7 1,6 3,2 3,6 5,3 4,1 33 18 52 28 W 1006,1 28 0 0,0
21.02.2017 18:00:00 5,2 1,4 3,8 4,3 5,5 4,0 36 19 56 31 W 1005,4 28 2 0,0
21.02.2017 17:00:00 5,8 1,7 5,0 5,6 5,6 4,0 33 18 55 30 W 1004,8 34 59 0,0
21.02.2017 16:00:00 6,5 1,9 7,4 6,6 5,6 4,0 37 20 59 32 W 1003,9 13 43 0,0
21.02.2017 15:00:00 6,6 2,0 7,6 7,7 5,4 4,0 43 23 63 34 W 1003,7 13 60 0,0
21.02.2017 14:00:00 6,6 2,3 8,3 7,6 5,1 4,0 39 21 72 39 W 1003,2 14 41 0,0
21.02.2017 13:00:00 6,9 2,9 9,9 7,6 4,9 4,0 44 24 62 33 W 1002,9 15 40 0,0
21.02.2017 12:00:00 6,5 2,3 8,6 6,7 4,7 4,0 38 21 68 37 W 1002,6 9 51 0,0
21.02.2017 11:00:00 5,7 2,5 5,9 5,7 4,6 4,0 39 21 56 30 W 1002,4 23 9 0,0
21.02.2017 10:00:00 5,4 2,6 5,1 5,1 4,5 3,9 34 19 54 29 W 1002,0 19 0 0,0
21.02.2017 09:00:00 5,5 2,8 5,4 4,5 4,6 3,9 32 18 52 28 W 1001,7 19 3 0,0
21.02.2017 08:00:00 5,1 2,8 4,3 4,1 4,7 3,9 33 18 56 30 W 1001,4 23 0 0,0
21.02.2017 07:00:00 5,3 3,0 4,3 4,3 4,8 3,9 36 19 61 33 W 1000,7 23 0 0,0
21.02.2017 06:00:00 5,4 3,3 4,6 4,5 4,9 3,9 38 20 61 33 W 1000,5 23 0 0,0
21.02.2017 05:00:00 5,6 3,4 4,6 4,5 5,0 3,9 38 20 58 31 W 1000,3 27 0 0,0
21.02.2017 04:00:00 5,4 3,2 4,3 4,7 5,1 3,9 36 19 56 30 W 1000,2 29 0 0,0
21.02.2017 03:00:00 5,9 3,7 5,1 5,3 5,2 3,9 35 19 57 31 W 1000,4 35 0 0,0
21.02.2017 02:00:00 6,0 4,2 5,3 5,5 5,3 3,9 34 18 53 29 W 1000,5 33 0 0,0
21.02.2017 01:00:00 6,1 4,4 5,6 5,9 5,3 3,8 34 18 57 31 W 1000,4 35 0 0,0
21.02.2017 00:00:00 6,4 5,0 5,9 6,2 5,4 3,8 41 22 60 33 W 999,6 19 0 0,0
20.02.2017 23:00:00 6,8 5,8 6,4 6,6 5,3 3,8 39 21 72 39 W 999,4 10 0 0,0
20.02.2017 22:00:00 7,5 6,4 7,1 7,0 5,3 3,8 44 24 68 37 W 999,1 9 0 0,1
20.02.2017 21:00:00 8,2 7,2 7,8 7,2 5,2 3,8 44 24 67 36 W 999,0 3,0 0 0,7
20.02.2017 20:00:00 8,6 7,4 8,0 7,1 5,0 3,8 41 22 63 34 W 999,4 2,2 0 0,4
20.02.2017 19:00:00 8,5 7,5 8,1 7,0 4,9 3,8 33 18 61 33 W 999,9 4,5 0 0,0
20.02.2017 18:00:00 8,5 7,1 7,9 6,8 4,8 3,8 30 16 53 28 WZW 999,9 24 0 0,0
20.02.2017 17:00:00 8,0 6,9 7,5 6,7 4,7 3,8 34 18 55 30 WZW 1000,8 6 0 0,1
20.02.2017 16:00:00 7,6 6,6 7,2 6,6 4,6 3,8 29 16 50 27 WZW 1002,0 4,6 0 0,2
20.02.2017 15:00:00 7,2 6,3 7,0 6,5 4,4 3,8 28 15 53 29 WZW 1002,8 2,9 0 0,1
20.02.2017 14:00:00 7,0 6,0 6,8 6,4 4,3 3,7 34 18 62 33 WZW 1003,6 3,1 0 0,0
20.02.2017 13:00:00 6,9 5,8 6,7 6,2 4,1 3,7 31 17 58 31 WZW 1004,4 3,3 0 0,1
20.02.2017 12:00:00 6,7 5,5 6,3 5,9 3,9 3,7 31 17 52 28 WZW 1005,5 3,5 0 0,3
20.02.2017 11:00:00 6,3 5,0 6,1 5,6 3,8 3,7 27 15 45 25 ZW 1006,7 3,6 0 0,4
20.02.2017 10:00:00 5,8 4,1 5,4 4,9 3,7 3,7 28 15 55 30 ZW 1007,7 6 0 0,1
20.02.2017 09:00:00 5,6 3,4 5,4 4,4 3,6 3,7 24 13 45 24 ZW 1008,9 19 0 0,0
20.02.2017 08:00:00 5,4 3,2 4,8 4,1 3,6 3,7 26 14 46 25 ZW 1009,6 17 0 0,0
20.02.2017 07:00:00 4,9 3,0 4,4 4,0 3,6 3,7 22 12 36 20 ZW 1010,4 33 0 0,0
20.02.2017 06:00:00 4,7 2,8 4,2 4,0 3,6 3,7 21 11 41 22 ZW 1010,8 44 0 0,0
20.02.2017 05:00:00 4,8 2,9 4,1 4,1 3,6 3,7 29 16 54 29 WZW 1012,1 23 0 0,0
20.02.2017 04:00:00 5,2 3,0 4,5 4,2 3,6 3,7 31 17 46 25 WZW 1012,3 25 0 0,0
20.02.2017 03:00:00 5,5 2,9 4,6 4,3 3,6 3,7 27 15 44 24 WZW 1012,8 31 0 0,0
20.02.2017 02:00:00 5,1 4,1 4,7 4,3 3,5 3,6 21 11 32 18 WZW 1013,3 3,7 0 0,0
20.02.2017 01:00:00 5,2 4,1 4,7 4,3 3,5 3,6 19 10 32 17 WZW 1013,5 3,7 0 0,1
20.02.2017 00:00:00 5,0 4,3 4,7 4,3 3,5 3,6 18 10 26 14 WZW 1013,9 1,7 0 0,0
19.02.2017 23:00:00 5,1 4,3 4,8 4,2 3,4 3,6 19 10 31 17 WZW 1014,2 2,6 0 0,0
19.02.2017 22:00:00 5,0 4,3 4,7 4,1 3,4 3,6 20 11 34 18 WZW 1014,0 1,6 0 0,0
19.02.2017 21:00:00 4,9 4,1 4,6 4,0 3,3 3,6 21 11 34 18 W 1014,4 2,4 0 0,0
19.02.2017 20:00:00 4,3 3,9 4,1 3,9 3,3 3,6 17 9 29 16 W 1014,3 0,6 0 0,0
19.02.2017 19:00:00 4,0 3,5 3,9 3,9 3,3 3,6 19 10 32 18 WZW 1014,2 0,7 0 0,0
19.02.2017 18:00:00 4,1 3,3 3,9 3,9 3,3 3,6 23 12 34 19 WZW 1014,1 1,6 0 0,0
19.02.2017 17:00:00 4,2 3,0 3,9 4,0 3,3 3,6 19 10 35 19 WZW 1013,8 3,1 0 0,0
19.02.2017 16:00:00 4,2 2,9 4,0 4,3 3,2 3,6 19 11 36 19 WZW 1014,0 3,1 0 0,0
19.02.2017 15:00:00 4,3 2,8 4,2 4,6 3,0 3,6 23 12 38 21 WZW 1014,0 3,6 0 0,0
19.02.2017 14:00:00 4,2 2,7 4,1 4,5 2,9 3,6 22 12 32 17 WZW 1014,5 3,4 0 0,3
19.02.2017 13:00:00 4,1 2,5 4,1 4,1 2,7 3,6 16 9 28 15 ZW 1015,0 2,3 0 0,6
19.02.2017 12:00:00 4,2 1,3 3,9 4,0 2,5 3,6 16 8 35 19 ZW 1015,3 4,7 0 0,0
19.02.2017 11:00:00 3,7 1,0 3,5 3,4 2,4 3,5 18 10 35 19 ZW 1015,9 4,2 0 0,0
19.02.2017 10:00:00 3,3 1,2 2,9 2,7 2,3 3,5 21 12 37 20 ZW 1016,2 3,7 0 0,7
19.02.2017 09:00:00 3,2 0,8 2,5 2,4 2,3 3,5 23 12 38 21 ZW 1016,5 3,8 0 0,2
19.02.2017 08:00:00 3,4 0,3 3,2 2,2 2,3 3,5 25 13 45 24 ZW 1016,6 7 0 0,0
19.02.2017 07:00:00 3,1 0,3 2,7 2,0 2,3 3,5 25 13 42 23 ZW 1016,9 8 0 0,0
19.02.2017 06:00:00 3,0 0,4 2,6 1,9 2,3 3,5 24 13 40 22 ZW 1017,4 10 0 0,0
19.02.2017 05:00:00 2,7 0,4 2,3 1,8 2,4 3,5 18 10 34 18 ZW 1018,3 10 0 0,0
19.02.2017 04:00:00 2,8 0,5 2,3 2,0 2,4 3,5 19 10 33 18 ZW 1019,0 10 0 0,0
19.02.2017 03:00:00 2,6 0,4 2,2 1,9 2,5 3,5 17 9 29 16 ZW 1019,8 7 0 0,0
19.02.2017 02:00:00 2,4 0,2 1,9 2,1 2,5 3,5 16 8 33 18 ZW 1020,4 8 0 0,0
19.02.2017 01:00:00 2,4 0,4 2,2 2,2 2,5 3,5 19 10 31 17 ZW 1021,2 7 0 0,0
19.02.2017 00:00:00 2,5 0,4 2,0 2,3 2,6 3,5 16 9 28 15 ZW 1021,7 9 0 0,0
18.02.2017 23:00:00 2,7 0,2 2,3 2,4 2,6 3,5 21 11 34 18 WZW 1022,4 12 0 0,0
18.02.2017 22:00:00 2,6 1,1 2,3 2,5 2,7 3,5 14 8 22 12 WZW 1022,6 11 0 0,0
18.02.2017 21:00:00 2,6 1,2 2,2 2,6 2,7 3,5 11 6 20 11 WZW 1022,9 12 0 0,0
18.02.2017 20:00:00 2,7 1,3 2,3 2,7 2,8 3,5 12 7 25 13 WZW 1023,0 14 0 0,0
18.02.2017 19:00:00 2,6 1,4 2,3 2,8 2,8 3,4 14 7 28 15 WZW 1023,2 10 0 0,0
18.02.2017 18:00:00 2,7 0,8 2,2 3,0 2,9 3,4 18 10 30 16 W 1023,1 33 0 0,0
18.02.2017 17:00:00 2,8 1,0 2,5 3,5 2,8 3,4 17 9 29 16 W 1023,1 41 0 0,0
18.02.2017 16:00:00 3,0 1,5 3,0 4,1 2,7 3,4 19 11 31 17 W 1023,2 31 0 0,0
18.02.2017 15:00:00 3,6 1,6 3,7 4,3 2,6 3,4 15 8 26 14 W 1023,1 21 0 0,0
18.02.2017 14:00:00 2,9 1,7 3,2 3,9 2,4 3,4 14 7 29 15 W 1023,3 11 0 0,0
18.02.2017 13:00:00 2,8 1,7 3,2 4,0 2,2 3,4 15 8 24 13 W 1023,6 8 0 0,0
18.02.2017 12:00:00 2,7 1,5 3,2 3,6 2,1 3,4 15 8 30 16 W 1023,6 17 0 0,0
18.02.2017 11:00:00 2,7 1,6 3,2 3,2 1,9 3,4 12 7 21 12 W 1023,4 15 0 0,0
18.02.2017 10:00:00 2,4 1,7 2,6 2,5 1,9 3,4 12 7 25 14 W 1023,3 3,5 0 0,0
18.02.2017 09:00:00 2,4 1,7 2,4 2,2 1,8 3,4 18 10 27 15 W 1023,2 2,4 0 0,0
18.02.2017 08:00:00 2,5 1,8 2,3 2,1 1,7 3,4 14 8 22 12 W 1022,9 2,4 0 0,0
18.02.2017 07:00:00 2,7 1,9 2,4 2,1 1,7 3,4 14 8 22 12 W 1022,5 4,1 0 0,0
18.02.2017 06:00:00 2,6 1,8 2,3 2,0 1,6 3,4 16 8 22 12 W 1022,1 3,4 0 0,0
18.02.2017 05:00:00 2,7 1,8 2,4 2,0 1,5 3,4 14 8 21 12 W 1021,8 4,2 0 0,0
18.02.2017 04:00:00 2,7 1,9 2,5 2,0 1,4 3,4 15 8 20 11 W 1021,6 4,6 0 0,0
18.02.2017 03:00:00 3,0 2,1 2,6 1,9 1,3 3,4 13 7 21 11 W 1021,8 4,8 0 0,0
18.02.2017 02:00:00 3,0 2,2 2,7 1,8 1,2 3,4 15 8 20 11 W 1021,4 4,3 0 0,0
18.02.2017 01:00:00 3,1 2,3 2,8 1,7 1,0 3,4 14 8 18 10 WZW 1021,5 3,5 0 0,0
18.02.2017 00:00:00 3,0 2,2 2,7 1,6 0,8 3,4 12 6 16 9 WZW 1021,4 4,5 0 0,0
17.02.2017 23:00:00 3,0 2,4 2,7 1,5 0,7 3,4 13 7 19 11 WZW 1021,3 2,9 0 0,0
17.02.2017 22:00:00 2,9 2,4 2,7 1,5 0,5 3,4 13 7 20 11 WZW 1021,2 1,5 0 0,0
17.02.2017 21:00:00 2,8 2,4 2,7 1,5 0,4 3,4 14 7 20 11 WZW 1020,9 0,5 0 0,0
17.02.2017 20:00:00 3,0 2,5 2,8 1,5 0,4 3,4 14 7 19 10 WZW 1020,5 1,6 0 0,1
17.02.2017 19:00:00 3,1 2,6 2,9 1,5 0,3 3,4 15 8 18 10 W 1020,2 1,4 0 0,0
17.02.2017 18:00:00 3,0 2,6 2,8 1,6 0,3 3,4 11 6 16 9 W 1019,6 2,1 0 0,0
17.02.2017 17:00:00 2,9 2,6 2,9 2,1 0,3 3,4 9 5 16 9 W 1019,2 0,4 0 0,0
17.02.2017 16:00:00 3,1 2,6 3,5 2,8 0,3 3,4 11 6 20 11 W 1019,0 1,7 0 0,0
17.02.2017 15:00:00 3,6 3,1 4,4 3,0 0,3 3,4 10 5 17 9 W 1018,5 0,5 0 0,0
17.02.2017 14:00:00 3,9 3,5 4,5 2,7 0,3 3,4 11 6 23 12 WNW 1018,3 0,5 0 0,0
17.02.2017 13:00:00 4,2 3,6 5,8 2,7 0,3 3,4 10 5 19 11 W 1018,2 0,8 0 0,0
17.02.2017 12:00:00 3,9 3,4 4,5 2,1 0,2 3,4 9 5 21 11 W 1018,3 0,9 0 0,0
17.02.2017 11:00:00 3,7 3,0 3,9 1,5 0,2 3,4 13 7 19 10 W 1018,0 1,4 0 0,0
17.02.2017 10:00:00 3,4 2,7 3,3 1,1 0,2 3,4 13 7 17 9 WZW 1017,7 2,0 0 0,0
17.02.2017 09:00:00 3,2 2,5 3,0 0,9 0,2 3,4 9 5 16 9 WZW 1017,8 1,6 0 0,0
17.02.2017 08:00:00 3,2 2,4 2,8 0,7 0,2 3,5 11 6 18 10 ZW 1017,8 2,1 0 0,3
17.02.2017 07:00:00 3,5 2,6 3,0 0,7 0,2 3,5 9 5 19 10 ZW 1017,9 3,1 0 1,1
17.02.2017 06:00:00 3,6 2,4 3,0 0,7 0,2 3,5 14 8 21 12 ZW 1018,5 2,6 0 0,5
17.02.2017 05:00:00 4,2 1,7 3,6 0,5 0,2 3,5 11 6 27 15 ZW 1018,7 9 0 0,0
17.02.2017 04:00:00 4,5 1,9 3,9 0,6 0,2 3,5 17 9 33 18 WZW 1019,1 9 0 0,0
17.02.2017 03:00:00 4,2 2,7 3,7 0,6 0,2 3,5 14 8 22 12 WZW 1019,9 3,8 0 0,0
17.02.2017 02:00:00 4,3 2,9 3,8 0,6 0,2 3,5 13 7 29 16 WZW 1020,4 3,5 0 0,0
17.02.2017 01:00:00 4,8 3,1 4,3 0,5 0,2 3,5 18 10 27 15 WZW 1021,1 4,4 0 0,0
17.02.2017 00:00:00 5,0 3,2 4,4 0,3 0,2 3,5 20 11 31 17 WZW 1021,7 6 0 0,0
16.02.2017 23:00:00 5,2 3,3 4,4 0,2 0,2 3,5 17 9 32 17 W 1021,7 7 0 0,0
16.02.2017 22:00:00 5,1 3,1 4,5 0,2 0,2 3,5 23 12 35 19 W 1022,4 8 0 0,0
16.02.2017 21:00:00 5,0 3,0 4,4 0,1 0,2 3,5 18 10 35 19 WZW 1022,9 7 0 0,0
16.02.2017 20:00:00 4,9 3,1 4,3 0,1 0,2 3,5 23 12 36 19 W 1023,4 9 0 0,0
16.02.2017 19:00:00 4,6 2,8 4,0 0,1 0,2 3,5 20 11 34 18 W 1023,9 6 0 0,0
16.02.2017 18:00:00 4,4 2,4 3,6 0,1 0,2 3,5 15 8 30 16 W 1024,1 6 0 0,0
16.02.2017 17:00:00 7,4 3,1 6,1 0,1 0,2 3,5 14 7 21 11 W 1024,0 16 0 0,0
16.02.2017 16:00:00 8,3 3,3 7,4 0,1 0,2 3,5 11 6 22 12 WZW 1023,9 16 0 0,0
16.02.2017 15:00:00 8,5 3,3 8,3 0,0 0,2 3,5 17 9 32 18 W 1024,3 16 32 0,0
16.02.2017 14:00:00 9,2 3,1 10,5 0,0 0,2 3,5 20 11 29 16 ZW 1024,6 10 60 0,0
16.02.2017 13:00:00 8,9 2,9 10,5 -0,1 0,2 3,5 16 8 28 15 ZW 1025,1 8 60 0,0
16.02.2017 12:00:00 7,8 2,5 9,0 -0,2 0,2 3,5 14 8 29 16 WZW 1026,0 7 60 0,0
16.02.2017 11:00:00 5,6 1,0 6,1 -0,2 0,2 3,5 21 11 34 18 WZW 1026,6 4,5 60 0,0

tt = temperatuur
td = dauwpunt
tt 5cm = temperatuur 5cm
tt -5cm = temperatuur -5cm
tt -20cm = temperatuur -20cm
tt -100cm = temperatuur -100cm
ff = windsnelheid
fx = windstoten
dd = windrichting
ppp = luchtdruk
vv = zicht
sd = Zonneschijnduur
rr = neerslag

Weerstations in de omgeving